Date,TemperatureHighF,TemperatureAvgF,TemperatureLowF,DewpointHighF,DewpointAvgF,DewpointLowF,HumidityHigh,HumidityAvg,HumidityLow,PressureMaxIn,PressureMinIn,WindSpeedMaxMPH,WindSpeedAvgMPH,GustSpeedMaxMPH,PrecipitationSumIn
2013-5-1,74,71,68,74,71,68,99,99,99,29.98,29.90,13,4,21,0.00
2013-5-2,76,72,68,76,72,68,99,99,99,29.96,29.81,10,3,14,0.00
2013-5-3,76,73,71,76,73,71,99,99,99,29.82,29.72,13,4,18,0.00
2013-5-4,75,72,69,75,72,69,99,99,99,29.81,29.68,21,4,24,0.00
2013-5-5,71,69,66,70,65,59,99,87,66,29.93,29.80,19,7,23,0.00
2013-5-6,72,69,66,70,67,65,98,93,88,30.01,29.89,14,2,22,0.00
2013-5-7,73,70,66,70,67,65,97,91,84,30.06,29.96,12,2,14,0.00
2013-5-8,74,72,69,71,69,68,98,92,84,30.13,30.03,8,1,11,0.00
2013-5-9,76,73,70,74,72,68,99,96,76,30.15,30.07,12,1,14,0.00
2013-5-10,80,74,70,78,71,-100,99,97,85,30.13,29.99,10,1,10,0.00
2013-5-11,80,76,74,80,76,74,99,99,99,30.05,29.98,11,1,14,0.00
2013-5-12,78,75,74,78,74,-100,99,99,97,30.04,29.93,10,1,11,0.00
2013-5-13,79,74,71,74,68,58,99,83,56,30.12,30.00,12,1,20,0.00
2013-5-14,78,72,66,69,60,50,90,68,40,30.20,30.10,7,1,19,0.00
2013-5-15,83,74,70,72,68,60,94,81,49,30.19,30.06,11,3,17,0.00
2013-5-16,78,68,71,74,43,-100,99,93,78,30.12,29.99,12,3,12,0.00
2013-5-17,78,74,72,76,68,-100,99,97,92,30.09,30.01,11,1,12,0.00
2013-5-18,79,75,73,79,75,73,99,99,97,30.10,30.01,0,0,9,0.00
2013-5-19,80,76,74,77,75,74,99,96,88,30.09,29.98,8,0,9,0.00
2013-5-20,82,77,74,80,76,74,99,97,91,30.06,29.96,7,0,14,0.00
2013-5-21,81,76,72,79,75,72,99,98,92,30.03,29.91,8,0,16,0.00
2013-5-22,79,76,73,78,76,73,99,99,98,29.97,29.88,13,1,15,0.00
2013-5-23,80,77,75,79,77,75,99,99,96,30.01,29.91,0,0,9,0.00
2013-5-24,83,78,75,81,77,72,99,96,75,30.06,29.97,0,0,0,0.00
2013-5-25,89,81,75,77,73,65,98,79,45,30.15,30.03,0,0,13,0.00
2013-5-26,84,77,72,73,67,59,97,74,45,30.19,30.09,5,0,14,0.00
2013-5-27,87,78,73,74,71,68,98,81,55,30.16,30.03,4,0,12,0.00
2013-5-28,87,77,73,81,76,73,99,96,75,30.13,30.00,0,0,7,0.00
2013-5-29,84,77,73,81,76,73,99,96,82,30.07,29.99,2,0,11,0.00
2013-5-30,85,78,74,81,77,74,99,95,82,30.06,29.98,0,0,1,0.00
2013-5-31,85,77,74,80,77,74,99,98,83,30.06,29.97,0,0,8,0.00